DELTA 1 DEB

Satellite information

Favourite Embed

Satellite Type and Status

DEBRISIN ORBIT

Key statistics

Satellite DELTA 1 DEB at a glance.

Uptime

18989

Days in orbit

Revolutions

≈ 12.5

Per day

Orbit

SSO

Sun Synchronous Orbit

Inclination

101.9

Latest

Satellite identification and parameters

Extended collection of information and parameters for DELTA 1 DEB.

Object identification

Identified? True

Debris? True

Object name: DELTA 1 DEB

International designator: 1973-086HM

Object number (NORAD): 42573

Object ID (CCSDS): 42573

Country: UNITED STATES OF AMERICA (US)

Current information (Y/N): Y

RCS size: SMALL

Orbital parameters

Period: 115.55 minutes

Inclination: 101.9161 deg

SMA: 7858.497 km

Apoapsis: 1509.989 km

Periapsis: 1450.734 km

RAAN: 45.0453 deg

Eccentricy: 0.00377009

Argument of periapsis: 69.5329 deg

Mean anomaly: 350.4747 deg

Mean motion: 12.4621666 rev/day

Mean motion (dot): 0.0000028 rev/day2

B* drag term: 0.0022385806 1/REarth

Two-line elements (TLE)

Creation date: Nov. 1, 2025, 7:40 p.m.

Reference frame: TEME

Reference center: EARTH

Epoch: Nov. 1, 2025, 6:01 a.m. UTC

TLE line 0: 0 DELTA 1 DEB

TLE line 1: 1 42573U 73086HM 25305.25119904 .00000280 00000-0 22386-2 0 9994

TLE line 2: 2 42573 101.9161 45.0453 0037701 69.5329 350.4747 12.46216660543001

Live tracking on map

Real-time ground track for satellite DELTA 1 DEB.

In-orbit conjunctions

A list of the most updated potential collisions computed for object DELTA 1 DEB.

Target Orbit TCA Probability of collision Miss distance Type
COSMOS 1287 LEO 2024-11-08 03:46:23 0.000269961 358.0 (m) PAYLOAD
DELTA 1 DEB SSO 2024-09-25 16:32:31 0.0003584092 504.0 (m) DEBRIS
BREEZE-KM R/B LEO 2024-09-07 11:08:09 0.0001021662 260.0 (m) ROCKET BODY

Associated space launch

Meteorological satellite using radiometric imaging

DELTA 1 DEB was lifted into orbit during the mission ‘Delta 0300 | NOAA 3’, on board a Delta 0300 space rocket.

The launch took place on Nov. 6, 1973, 5:02 p.m. from Space Launch Complex 2W.

For more information about the launch, click the button.

Launch to space Delta 0300 | NOAA 3
Delta 0300 | NOAA 3

Agency: N/A

Status: Launch Successful

Launch date: Nov. 6, 1973, 5:02 p.m. UTC

Rocket: Delta 0300

Launch pad: Space Launch Complex 2W

Location: Vandenberg SFB, CA, USA

...

Latest news about this satellite

There are no fresh news available about this satellite. Check back as we update our databases every day.


Newsletter sign-up

Weekly statistics, charts and insights to help you stay on top of the space industry.